国家海洋和大气管理局 14号 (NOAA 14)

导读 | 星芒AI

NOAA 14 是美国国家海洋和大气管理局(NOAA)于1994年发射的极轨气象卫星,属于TIROS-N系列。该卫星搭载多种遥感仪器,用于监测地球天气、气候和环境变化。NOAA 14 主要任务包括提供全球气象数据,支持天气预报和灾害预警。尽管已退役,它在气象观测领域发挥了重要作用,为后续卫星任务提供了宝贵经验和技术基础。

基本信息
目录编号:
23455
目录名称:
NOAA 14
国际标识:
1994-089A
轨道中心:
EARTH
卫星名称:
国家海洋和大气管理局 14号
卫星全名:
国家海洋和大气管理局 14号 (NOAA 14)
卫星状态:
在轨 (已飞行11261 天)
发射日期:
1994-12-30 UTC
国别 :
美国 (US)
星等 :
--
轨道信息
数据来源 国际轨道数据 AOE轨道数据
星历时间 2025-10-28T21:25:45+0800
18小时前
查看轨道信息
2025-10-27T11:00:00+0800
2天前
查看轨道信息
半长轴 7221.752km 7221.76km
偏心率 0.0010141 0.0010181
轨道倾角 98.483° 98.484°
近地点辐角 34.901° 38.324°
升交点赤经 277.218° 275.854°
平近点角 325.283° 220.338°
近地点 836.293km 836.272km
远地点 850.941km 850.978km
周期 101.794分钟 101.794分钟
每日圈数 14.146174 14.14615
详细信息
卫星平台:
TIROS-N
平衡模式:
三轴稳定
覆盖范围:
美洲
制造商(研发单位):
洛克希德·马丁公司
制造商所在国:
美国
使用方式:
暂无
卫星简介
NOAA卫星是美国国家海洋大气局的第三代实用气象观测卫星,第一代称为“泰罗斯”(TIROS)系列(1960-1965年),第二代称为“艾托斯”(ITOS)/NOAA系列(1970-1976年),其后运行的第三代称为TIROS--N/NOAA系列。其轨道是接近正圆的太阳同步轨道,轨道高度为870千米和833千米,轨道倾角为98.9°和98.7°,周期为101.4分钟。NOAA的应用目的是日常的气象业务,平时有两颗卫星运行。由于一颗卫星可以每天至少可以对地面同一地区进行两次观测,所以两颗卫星就可以进行四次以上的观测。该卫星已退役。
2D轨道图
3D轨道图
轨道高度分析图
轨道倾角分析图
轨道综合分析图
查看轨道综合分析图